Temperature
17 17 16 16 16 16 16 16 16 15 15 16 16 16 16 16 16 16 16 16 16 15 15 15 15 15 15 15 15 15 15 15 15 15 15 14 14 14
17 16 16 16 16 16 16 16 15 15 15 15 15 15 15 15 15 15 15 15 15 15 15 15 15 15 15 15 15 15 15 15 15 15 15 14 14 14
16 16 16 16 16 16 16 16 15 15 15 15 15 15 15 15 15 15 15 15 15 15 15 15 15 15 15 15 15 15 15 14 14 14 14 14 14 14
16 16 16 16 16 16 16 15 15 15 15 15 15 15 15 15 15 15 15 15 15 15 15 15 15 15 15 15 15 15 14 14 14 14 14 14 14 14
16 16 16 16 16 16 15 15 15 15 15 15 15 15 15 15 15 15 15 15 15 15 15 14 14 14 14 14 14 14 14 14 14 14 14 14 14 14
16 16 16 16 16 15 15 15 15 15 15 15 15 15 15 14 14 14 14 14 14 15 14 14 14 14 14 14 14 14 14 14 14 14 14 14 13 13
16 16 16 15 15 15 15 15 15 15 15 14 14 14 14 14 14 14 14 14 14 14 14 14 14 14 14 14 14 14 14 14 14 14 13 13 13 13
16 16 15 15 15 15 15 15 15 14 14 14 14 14 14 14 14 14 14 14 14 14 14 14 14 14 14 14 14 14 14 13 13 13 13 13 13 13
15 15 15 15 15 15 15 15 14 14 14 14 14 14 14 14 14 13 13 13 13 13 13 14 14 14 14 14 14 13 13 13 13 13 13 13 13 13
15 15 15 15 15 15 14 14 14 14 14 14 14 14 13 13 13 13 13 13 13 13 13 13 13 13 13 13 13 13 13 13 13 13 13 13 13 13
15 15 14 15 14 14 14 14 14 14 14 14 13 13 13 13 13 13 13 13 13 13 13 13 13 13 13 13 13 13 13 13 13 13 13 12 12 12
14 15 14 14 14 14 14 14 14 14 14 13 13 13 13 13 13 12 12 12 12 12 12 12 12 12 12 12 13 12 12 12 12 12 12 12 12 12
14 14 14 14 14 14 14 14 14 13 13 13 13 13 13 13 12 12 12 12 12 12 12 12 12 12 12 12 12 12 12 12 12 12 12 12 12 12
14 14 14 14 14 13 13 13 13 13 13 12 12 12 12 12 12 12 12 12 12 12 11 11 11 11 11 11 11 11 11 11 11 11 11 11 11 11
13 13 13 13 13 13 13 13 13 13 12 12 12 12 12 12 12 12 12 12 12 11 11 11 11 11 11 11 11 11 11 11 11 11 11 11 11 11
13 13 13 13 13 13 13 13 12 12 12 12 12 12 12 12 11 11 11 11 11 11 11 11 11 11 11 11 10 10 10 10 10 10 10 10 11 10
13 13 13 13 12 12 12 12 12 12 12 11 11 11 11 11 11 11 11 11 11 11 11 11 11 10 10 10 10 10 10 10 10 10 10 10 10 10
12 12 12 12 12 12 12 12 12 12 11 11 11 11 11 11 10 10 10 10 10 10 10 10 10 10 10 10 9 9 9 9 9 9 9 9 10 10
12 12 12 12 12 12 11 11 11 11 11 11 10 10 10 10 10 10 10 10 9 9 9 9 9 9 9 9 9 9 9 9 9 9 9 9 9 9
12 11 11 11 11 11 11 11 11 11 10 10 10 10 10 10 9 9 9 9 9 9 9 9 8 8 8 8 8 8 8 8 8 8 8 8 8 8
11 11 11 11 11 11 11 10 10 10 10 10 10 9 9 9 9 8 8 8 8 8 8 8 8 8 8 8 7 8 8 8 7 7 7 7 7 7
11 11 11 11 10 10 10 10 10 10 9 9 9 9 9 8 8 8 8 8 7 7 7 8 8 7 7 7 7 7 7 7 7 7 7 7 7 6
10 10 10 10 10 10 10 10 9 9 9 9 9 8 8 8 8 7 7 7 7 7 7 7 7 7 7 7 7 7 7 7 7 7 7 7 6 6
Wind_Speed
3 2 2 2 2 2 3 3 3 2 3 2 2 2 2 3 4 4 4 5 5 5 5 5 5 5 5 5 4 4 4 5 5 6 6 7 7 7
2 2 2 2 2 2 3 2 2 3 3 2 3 3 3 3 4 3 4 4 5 5 5 5 5 5 6 6 5 5 5 5 5 5 5 5 5 5
2 2 3 3 2 2 2 2 2 2 3 3 2 2 2 3 2 2 2 3 4 5 5 5 5 5 6 6 6 6 6 6 6 6 6 5 5 5
3 3 3 2 1 2 2 2 2 2 3 3 3 2 2 2 2 2 2 2 3 4 4 4 5 5 5 6 7 7 7 7 7 7 7 7 6 6
3 3 3 2 2 1 2 2 2 2 2 2 3 2 2 2 1 2 2 2 3 2 3 4 5 6 6 5 6 6 7 7 7 7 7 7 6 6
2 3 3 3 3 2 2 2 2 2 2 2 2 2 2 2 1 1 2 2 2 1 2 3 4 5 6 6 6 6 6 7 7 8 8 7 7 7
2 2 3 3 2 2 2 2 2 2 1 1 1 2 2 1 2 2 2 2 2 1 2 2 2 3 4 5 6 6 7 7 7 7 8 8 8 8
2 2 2 1 1 1 2 2 3 3 3 2 2 2 3 2 2 2 1 1 2 1 1 2 1 2 3 4 5 6 7 7 7 7 8 8 8 9
2 2 1 1 0 1 1 1 1 2 3 3 3 3 3 3 2 2 2 2 2 1 1 2 1 2 3 4 5 6 7 7 7 7 8 8 8 9
2 2 1 1 1 1 1 1 0 1 2 2 3 3 3 2 3 2 2 2 2 1 1 2 2 2 3 3 4 6 7 7 7 7 7 8 8 8
1 1 1 1 1 2 2 1 0 1 1 1 1 2 2 1 2 1 1 1 2 2 1 2 2 2 2 3 4 4 5 5 6 6 7 7 7 7
1 1 2 2 2 3 2 2 1 2 1 1 1 2 2 1 1 2 2 2 2 2 1 2 2 1 2 1 2 2 2 4 5 5 6 6 6 4
2 1 1 2 3 3 2 2 3 2 0 0 1 2 2 2 1 2 2 3 3 3 1 2 1 1 2 2 2 2 2 2 2 3 4 6 7 6
3 2 2 2 3 3 2 2 2 2 1 0 0 1 2 2 2 2 2 2 3 3 2 2 2 2 2 3 3 2 2 2 2 2 3 3 5 8
2 2 1 2 2 2 2 2 2 2 1 1 1 2 2 2 2 2 2 2 2 3 2 2 3 2 2 3 3 3 3 3 2 3 3 2 2 2
1 0 1 1 1 1 1 1 1 1 2 2 2 2 1 2 2 2 2 2 2 3 3 2 2 2 2 3 3 3 3 3 3 3 3 4 3 4
2 1 1 1 1 0 0 0 1 1 1 1 1 1 2 2 2 1 1 1 1 2 3 3 3 2 2 2 2 3 3 3 3 3 3 4 4 4
3 1 1 1 1 2 1 1 1 1 1 1 1 1 2 2 2 2 1 1 2 2 3 3 3 2 1 1 2 3 3 3 4 3 3 3 5 4
2 2 2 2 2 2 2 2 2 1 1 2 2 2 2 1 1 1 1 1 2 2 2 2 2 1 2 4 3 2 4 4 4 3 3 3 5 5
1 2 2 2 2 2 2 2 2 1 1 1 1 1 1 1 1 2 2 2 2 2 2 2 2 2 3 4 4 4 4 4 4 4 4 4 5 5
2 2 3 3 3 3 2 2 2 1 1 1 1 1 1 1 1 2 2 2 2 2 3 4 4 4 3 2 3 4 4 4 4 4 4 4 5 4
2 3 3 3 3 2 2 2 1 1 1 1 1 1 2 1 2 3 3 3 3 3 4 4 3 2 1 3 4 5 6 6 5 5 6 5 4 4
2 2 2 2 2 2 2 2 2 2 2 2 2 1 1 2 2 3 3 3 3 3 3 4 3 2 2 3 4 5 6 6 5 4 5 5 7 9
Wind_Direction
234 228 239 244 226 223 211 203 197 246 273 277 282 278 273 269 270 259 256 258 249 244 244 239 236 235 233 238 239 237 236 237 240 241 247 243 241 243
235 239 251 254 236 222 206 205 208 212 253 272 268 278 280 281 280 262 257 262 255 251 252 248 238 235 232 234 233 232 231 230 234 235 239 240 240 244
245 241 260 259 239 224 200 191 202 204 245 282 280 283 272 272 297 288 271 266 270 257 249 243 237 236 233 232 231 228 227 228 231 234 237 239 240 242
239 237 251 245 229 214 193 201 209 209 218 264 287 294 277 266 275 276 285 282 280 274 255 252 250 246 244 237 231 227 227 228 230 232 236 240 239 239
227 229 237 224 240 238 215 219 222 220 215 231 277 289 282 283 289 288 288 291 284 275 260 259 251 248 248 242 235 229 230 232 234 234 235 237 238 239
236 238 235 228 227 223 223 220 212 211 210 217 269 295 285 284 260 274 296 294 293 297 283 262 254 253 252 244 236 230 232 234 237 236 234 235 236 237
242 248 242 229 216 209 219 212 196 205 208 220 258 289 295 287 259 251 264 288 284 274 287 282 274 267 262 251 241 235 232 235 237 237 237 237 237 238
236 259 246 224 225 197 189 186 183 193 210 220 248 257 268 260 256 240 231 261 277 267 250 275 267 275 276 255 246 238 235 235 236 238 240 240 239 239
216 234 245 258 190 201 175 159 159 189 192 199 220 249 254 247 240 250 230 231 249 276 234 269 269 272 277 265 252 247 244 242 242 243 242 241 239 238
208 211 212 254 245 169 160 116 334 273 225 204 214 243 250 239 216 227 242 261 275 272 209 253 271 267 275 277 268 254 250 248 247 247 245 243 240 238
231 216 205 216 235 132 137 157 312 315 304 160 200 255 268 260 182 154 180 238 275 286 232 245 273 277 273 271 283 272 263 259 256 252 247 244 241 238
234 234 213 197 178 154 163 176 228 278 315 9 9 346 326 310 206 205 220 230 248 272 246 229 276 278 286 277 298 309 295 283 275 262 253 248 233 227
214 245 244 193 176 180 180 203 227 227 255 315 340 344 344 326 302 266 241 229 231 249 250 197 242 253 256 285 298 307 306 307 300 286 266 252 233 215
209 226 224 179 170 175 191 219 194 163 157 110 341 325 319 315 308 297 281 255 242 251 257 204 225 230 240 262 278 295 296 300 298 293 293 275 246 233
218 217 196 173 170 168 182 180 166 162 164 176 258 286 299 308 319 320 325 301 286 288 284 236 231 235 232 251 269 282 296 297 287 286 284 273 265 248
203 117 102 126 129 141 128 173 195 195 195 211 252 288 323 337 330 325 326 330 322 322 328 318 279 242 243 251 260 282 290 298 310 301 292 284 274 253
140 105 83 101 107 130 198 195 181 182 218 251 261 294 316 317 312 315 317 328 312 313 327 339 334 295 256 263 267 284 297 302 305 308 301 295 286 274
131 152 181 195 218 225 230 247 230 224 237 229 239 262 280 289 306 322 329 310 300 305 315 327 341 346 327 288 253 279 296 298 301 298 294 291 292 295
137 184 204 221 238 240 231 235 245 240 227 220 235 258 276 288 302 313 321 316 308 307 313 325 328 316 303 301 300 248 278 297 303 300 290 277 279 289
190 216 225 230 236 239 236 238 245 241 230 236 245 259 270 283 297 298 294 295 296 305 315 324 304 281 268 279 287 294 278 280 290 292 294 290 284 284
237 236 237 238 240 238 237 234 231 228 233 240 257 266 268 271 279 285 283 282 281 290 293 296 293 288 279 274 283 293 299 288 276 277 285 289 295 293
247 248 246 240 237 234 228 218 219 229 239 251 262 270 273 266 265 271 276 279 277 275 281 290 303 300 281 272 283 293 301 312 306 283 268 260 270 277
235 244 250 240 235 232 229 221 220 233 239 251 260 268 274 278 273 270 273 272 277 279 285 296 305 296 283 279 282 290 296 305 312 316 307 294 272 268
Height
1530 1530 1529 1529 1528 1528 1528 1528 1528 1526 1526 1526 1526 1526 1526 1526 1525 1525 1525 1525 1525 1525 1525 1524 1524 1524 1524 1524 1524 1525 1525 1525 1525 1525 1526 1526 1526 1526
1527 1527 1526 1525 1525 1525 1525 1525 1525 1525 1524 1523 1523 1523 1523 1523 1522 1522 1522 1522 1522 1522 1522 1522 1521 1521 1521 1522 1522 1522 1522 1522 1522 1522 1523 1523 1523 1523
1524 1524 1523 1522 1521 1521 1521 1522 1522 1523 1522 1521 1521 1520 1520 1520 1520 1519 1519 1519 1519 1519 1519 1519 1519 1519 1519 1519 1519 1519 1519 1520 1520 1520 1520 1520 1520 1520
1522 1521 1520 1519 1519 1519 1519 1519 1520 1520 1520 1518 1518 1517 1517 1517 1517 1516 1516 1516 1516 1516 1516 1516 1516 1516 1516 1516 1516 1517 1517 1517 1517 1517 1517 1517 1517 1517
1519 1518 1518 1517 1517 1516 1517 1517 1517 1517 1517 1516 1515 1515 1515 1514 1514 1514 1514 1514 1514 1514 1514 1514 1514 1514 1514 1514 1514 1514 1514 1514 1514 1514 1514 1514 1514 1514
1516 1516 1516 1515 1515 1515 1515 1515 1515 1515 1514 1514 1513 1512 1512 1512 1512 1511 1511 1511 1511 1511 1511 1511 1511 1511 1511 1511 1511 1511 1511 1511 1511 1511 1511 1511 1511 1511
1514 1514 1514 1513 1513 1513 1513 1512 1512 1512 1511 1511 1510 1510 1509 1509 1509 1508 1508 1508 1508 1508 1508 1508 1508 1508 1508 1508 1508 1508 1508 1508 1508 1508 1508 1508 1508 1508
1512 1512 1511 1511 1511 1511 1510 1510 1510 1510 1509 1508 1508 1507 1507 1507 1506 1506 1505 1505 1505 1505 1505 1505 1505 1505 1505 1505 1505 1505 1505 1505 1505 1504 1504 1504 1504 1504
1509 1509 1508 1508 1508 1508 1508 1508 1508 1507 1507 1507 1505 1505 1505 1504 1504 1503 1503 1502 1502 1502 1502 1502 1502 1502 1502 1501 1502 1502 1502 1502 1501 1501 1501 1500 1500 1500
1507 1507 1506 1506 1506 1506 1506 1505 1505 1505 1505 1504 1504 1503 1503 1502 1502 1501 1500 1500 1499 1499 1499 1499 1499 1499 1499 1498 1498 1498 1498 1498 1498 1497 1497 1496 1496 1497
1505 1505 1504 1504 1504 1504 1504 1503 1502 1502 1502 1502 1502 1501 1501 1500 1499 1499 1498 1497 1496 1496 1496 1496 1495 1495 1495 1495 1495 1495 1495 1494 1494 1494 1493 1493 1493 1493
1502 1502 1502 1501 1501 1502 1501 1501 1500 1500 1500 1499 1499 1499 1498 1497 1497 1496 1496 1495 1494 1494 1493 1493 1492 1492 1491 1491 1492 1492 1491 1491 1490 1490 1489 1489 1489 1488
1499 1499 1498 1498 1498 1499 1499 1498 1498 1498 1497 1497 1496 1495 1495 1494 1494 1494 1493 1493 1492 1491 1491 1491 1490 1489 1489 1488 1487 1487 1487 1487 1486 1486 1486 1485 1485 1484
1495 1496 1496 1496 1495 1495 1495 1495 1495 1495 1494 1493 1493 1492 1492 1492 1491 1491 1491 1490 1489 1489 1489 1488 1487 1486 1485 1484 1484 1483 1483 1483 1482 1482 1481 1481 1481 1480
1493 1493 1493 1493 1493 1492 1492 1492 1492 1491 1491 1490 1490 1489 1489 1489 1489 1489 1488 1487 1486 1486 1486 1485 1484 1483 1482 1481 1480 1479 1479 1478 1478 1478 1477 1476 1476 1475
1490 1490 1490 1490 1490 1489 1489 1489 1488 1488 1488 1487 1487 1487 1487 1486 1486 1485 1485 1484 1483 1482 1482 1482 1481 1480 1479 1478 1477 1476 1475 1474 1474 1473 1472 1471 1471 1470
1487 1487 1487 1487 1486 1486 1486 1485 1485 1485 1485 1484 1485 1484 1483 1483 1482 1482 1481 1480 1479 1478 1478 1478 1478 1477 1475 1475 1473 1472 1471 1470 1470 1469 1467 1466 1466 1466
1484 1484 1484 1484 1483 1483 1483 1482 1482 1482 1481 1482 1481 1481 1480 1479 1479 1478 1478 1477 1476 1475 1474 1474 1473 1472 1472 1471 1471 1469 1468 1467 1466 1465 1463 1462 1461 1460
1481 1481 1481 1481 1481 1481 1480 1480 1479 1479 1479 1479 1478 1477 1477 1476 1475 1474 1474 1473 1472 1472 1471 1471 1470 1469 1467 1466 1466 1466 1464 1463 1461 1460 1458 1457 1456 1455
1479 1479 1479 1479 1479 1478 1478 1477 1477 1476 1476 1475 1475 1474 1473 1472 1471 1471 1470 1470 1469 1468 1468 1467 1467 1466 1464 1464 1462 1461 1460 1458 1457 1455 1454 1452 1451 1450
1476 1476 1477 1477 1476 1476 1475 1474 1474 1473 1472 1472 1471 1470 1470 1468 1468 1467 1467 1466 1466 1465 1464 1464 1463 1463 1461 1460 1458 1457 1457 1455 1453 1451 1449 1447 1445 1444
1474 1474 1474 1474 1474 1473 1472 1472 1471 1470 1470 1469 1468 1467 1466 1465 1465 1464 1463 1462 1462 1461 1460 1460 1459 1458 1457 1456 1454 1452 1452 1451 1449 1448 1446 1444 1442 1439
1472 1472 1472 1472 1471 1470 1470 1469 1468 1468 1467 1466 1465 1464 1463 1462 1461 1461 1460 1459 1458 1457 1457 1456 1455 1454 1453 1452 1450 1448 1447 1446 1444 1443 1442 1440 1439 1437